Flag for Germany Weather past 2 weeks in Frankfurt an der Oder, Brandenburg, Germany

Now
74 °F

Passing clouds.


Feels Like: 77 °F
Forecast: 58 / 82 °F
Wind: 3 mph from East

Location: Lindenberg

Current Time: Aug 1, 2015 at 9:14:50 PM

Latest Report: Aug 1, 2015 at 8:00 PM


Visibility: 31 mi

Pressure: 29.97 "Hg

Humidity: 38%

Dew point: 46 °F

Location of Frankfurt an der OderLocation

Historic Weather in Frankfurt an der Oder — Graph

°F

Frankfurt an der Oder temperature yesterday

Maximum temperature yesterday: 65 °F (at 6:00 PM)
Minimum temperature yesterday: 51 °F (at 7:00 AM)
Average temperature yesterday: 58 °F

Past Weeks' High & Low Weather Summary

 TemperatureHumidityPressure
High86 °F (Jul 17, 8:00 PM)96% (Jul 21, 8:00 AM)30.10 "Hg (Jul 21, 8:00 AM)
Low51 °F (Aug 1, 3:00 AM)31% (Aug 1, 4:00 PM)29.56 "Hg (Jul 27, 3:00 PM)
Average67 °F64%29.85 "Hg
* Reported Jul 17 8:00 PM — Aug 1 8:00 PM, Frankfurt an der Oder, Weather by CustomWeather, © 2015

Note: Actual official high and low records may vary slightly from our data, if they occured in-between our weather recording intervals... More about our weather records

Advertising

Frankfurt an der Oder weather history for previous 24 hours

 ConditionsComfort  
Time TempWeatherWind HumidityBarometerVisibility
8:00 PM
Sat, Aug 1
74 °FPassing clouds.3 mph38%29.97 "Hg31 mi
7:00 PM75 °FPartly sunny.2 mph35%29.98 "Hg31 mi
6:00 PM77 °FPartly sunny.5 mph32%29.98 "Hg28 mi
5:00 PM78 °FScattered clouds.3 mph31%29.98 "Hg25 mi
4:00 PM77 °FScattered clouds.2 mph31%29.99 "Hg25 mi
3:00 PM75 °FScattered clouds.3 mph34%30.01 "Hg25 mi
2:00 PM74 °FPassing clouds.3 mph36%30.03 "Hg25 mi
1:00 PM72 °FPassing clouds.5 mph37%30.04 "Hg25 mi
12:00 PM70 °FScattered clouds.5 mph41%30.05 "Hg25 mi
11:00 AM66 °FPartly sunny.3 mph48%30.07 "Hg25 mi
10:00 AM63 °FPartly sunny.3 mph52%30.07 "Hg25 mi
9:00 AM58 °FOvercast.3 mph63%30.07 "Hg22 mi
8:00 AM54 °FOvercast.3 mph70%30.08 "Hg22 mi
7:00 AM54 °FOvercast.3 mph68%30.08 "Hg19 mi
4:00 AM54 °FPassing clouds.3 mph65%30.10 "Hg25 mi
3:00 AM51 °FPassing clouds.3 mph75%30.10 "Hg31 mi
2:00 AM55 °FPassing clouds.3 mph64%30.09 "Hg31 mi
1:00 AM56 °FPassing clouds.3 mph62%30.09 "Hg31 mi
12:00 AM55 °FClear.3 mph66%30.09 "Hg31 mi
11:00 PM
Fri, Jul 31
54 °FPassing clouds.2 mph69%30.08 "Hg31 mi
10:00 PM55 °FPassing clouds.2 mph66%30.08 "Hg31 mi
9:00 PM58 °FPassing clouds.1 mph61%30.08 "Hg31 mi
Weather by CustomWeather, © 2015

See weather overviewHow to use our weather pages